TimeCDT,TemperatureF,Dew PointF,Humidity,Sea Level PressureIn,VisibilityMPH,Wind Direction,Wind SpeedMPH,Gust SpeedMPH,PrecipitationIn,Events,Conditions,WindDirDegrees,DateUTC
12:15 AM,33.8,26.6,75,30.20,10.0,WNW,8.1,-,N/A,,Clear,300,2013-04-05 05:15:00
12:35 AM,33.8,26.6,75,30.21,10.0,WNW,9.2,-,N/A,,Clear,300,2013-04-05 05:35:00
12:55 AM,32.0,26.6,80,30.21,10.0,WNW,6.9,-,N/A,,Clear,300,2013-04-05 05:55:00
1:15 AM,32.0,26.6,80,30.21,10.0,NW,8.1,-,N/A,,Clear,310,2013-04-05 06:15:00
1:34 AM,32.0,26.6,80,30.21,10.0,Calm,Calm,-,N/A,,Clear,0,2013-04-05 06:34:00
1:55 AM,32.0,26.6,80,30.21,10.0,Calm,Calm,-,N/A,,Clear,0,2013-04-05 06:55:00
2:15 AM,30.2,26.6,86,30.21,10.0,Calm,Calm,-,N/A,,Clear,0,2013-04-05 07:15:00
2:34 AM,32.0,26.6,80,30.21,10.0,NW,5.8,-,N/A,,Mostly Cloudy,310,2013-04-05 07:34:00
2:54 AM,30.2,26.6,86,30.21,10.0,NW,6.9,-,N/A,,Mostly Cloudy,320,2013-04-05 07:54:00
3:15 AM,30.2,26.6,86,30.21,10.0,Calm,Calm,-,N/A,,Clear,0,2013-04-05 08:15:00
3:34 AM,30.2,26.6,86,30.21,10.0,Calm,Calm,-,N/A,,Clear,0,2013-04-05 08:34:00
3:55 AM,32.0,26.6,80,30.21,10.0,NNW,8.1,-,N/A,,Mostly Cloudy,330,2013-04-05 08:55:00
4:15 AM,32.0,26.6,80,30.22,10.0,NW,5.8,-,N/A,,Scattered Clouds,310,2013-04-05 09:15:00
4:34 AM,30.2,26.6,86,30.22,10.0,NNW,5.8,-,N/A,,Scattered Clouds,340,2013-04-05 09:34:00
4:55 AM,32.0,26.6,80,30.22,10.0,Calm,Calm,-,N/A,,Overcast,0,2013-04-05 09:55:00
5:14 AM,32.0,26.6,80,30.22,10.0,Calm,Calm,-,N/A,,Overcast,0,2013-04-05 10:14:00
5:35 AM,32.0,24.8,75,30.21,10.0,Calm,Calm,-,N/A,,Overcast,0,2013-04-05 10:35:00
5:55 AM,32.0,24.8,75,30.21,10.0,Calm,Calm,-,N/A,,Mostly Cloudy,0,2013-04-05 10:55:00
6:14 AM,32.0,24.8,75,30.21,10.0,Calm,Calm,-,N/A,,Scattered Clouds,0,2013-04-05 11:14:00
6:35 AM,30.2,24.8,80,30.21,10.0,Calm,Calm,-,N/A,,Scattered Clouds,0,2013-04-05 11:35:00
6:55 AM,30.2,24.8,80,30.21,10.0,Calm,Calm,-,N/A,,Clear,0,2013-04-05 11:55:00
7:15 AM,30.2,24.8,80,30.21,10.0,Calm,Calm,-,N/A,,Clear,0,2013-04-05 12:15:00
7:35 AM,32.0,23.0,69,30.21,10.0,Calm,Calm,-,N/A,,Mostly Cloudy,0,2013-04-05 12:35:00
7:55 AM,33.8,23.0,65,30.21,10.0,ENE,8.1,-,N/A,,Mostly Cloudy,60,2013-04-05 12:55:00
8:15 AM,33.8,23.0,65,30.21,10.0,ENE,6.9,-,N/A,,Mostly Cloudy,70,2013-04-05 13:15:00
8:34 AM,35.6,23.0,60,30.21,10.0,East,6.9,-,N/A,,Scattered Clouds,80,2013-04-05 13:34:00
8:55 AM,35.6,23.0,60,30.21,10.0,East,6.9,-,N/A,,Mostly Cloudy,90,2013-04-05 13:55:00
9:15 AM,37.4,21.2,52,30.20,10.0,East,8.1,-,N/A,,Overcast,90,2013-04-05 14:15:00
9:34 AM,35.6,21.2,56,30.20,10.0,East,8.1,-,N/A,,Scattered Clouds,100,2013-04-05 14:34:00
9:55 AM,37.4,21.2,52,30.19,10.0,East,9.2,-,N/A,,Scattered Clouds,100,2013-04-05 14:55:00
10:15 AM,37.4,21.2,52,30.20,10.0,Calm,Calm,-,N/A,,Mostly Cloudy,0,2013-04-05 15:15:00
10:34 AM,37.4,21.2,52,30.20,10.0,Calm,Calm,-,N/A,,Mostly Cloudy,0,2013-04-05 15:34:00
10:55 AM,39.2,23.0,52,30.19,10.0,East,3.5,-,N/A,,Scattered Clouds,100,2013-04-05 15:55:00
11:15 AM,39.2,23.0,52,30.17,10.0,ESE,10.4,-,N/A,,Scattered Clouds,110,2013-04-05 16:15:00
11:34 AM,39.2,23.0,52,30.17,10.0,ESE,10.4,-,N/A,,Scattered Clouds,110,2013-04-05 16:34:00
11:55 AM,41.0,23.0,49,30.14,10.0,East,12.7,-,N/A,,Scattered Clouds,100,2013-04-05 16:55:00
12:15 PM,41.0,23.0,49,30.14,10.0,ESE,13.8,18.4,N/A,,Scattered Clouds,110,2013-04-05 17:15:00
12:34 PM,42.8,23.0,46,30.14,10.0,ESE,11.5,-,N/A,,Clear,110,2013-04-05 17:34:00
12:55 PM,44.6,23.0,43,30.14,10.0,ESE,12.7,-,N/A,,Scattered Clouds,110,2013-04-05 17:55:00
1:15 PM,44.6,21.2,39,30.15,10.0,ESE,11.5,-,N/A,,Scattered Clouds,120,2013-04-05 18:15:00
1:34 PM,46.4,21.2,37,30.12,10.0,ESE,15.0,-,N/A,,Scattered Clouds,120,2013-04-05 18:34:00
1:55 PM,46.4,21.2,37,30.10,10.0,ESE,13.8,21.9,N/A,,Clear,120,2013-04-05 18:55:00
2:14 PM,46.4,21.2,37,30.07,10.0,ESE,18.4,-,N/A,,Clear,110,2013-04-05 19:14:00
2:35 PM,46.4,23.0,40,30.07,10.0,ESE,13.8,24.2,N/A,,Scattered Clouds,120,2013-04-05 19:35:00
2:55 PM,46.4,23.0,40,30.06,10.0,ESE,18.4,-,N/A,,Scattered Clouds,110,2013-04-05 19:55:00
3:15 PM,46.4,24.8,43,30.03,10.0,ESE,20.7,24.2,N/A,,Clear,110,2013-04-05 20:15:00
3:35 PM,48.2,24.8,40,30.03,10.0,ESE,18.4,25.3,N/A,,Clear,110,2013-04-05 20:35:00
3:54 PM,48.2,26.6,43,30.03,10.0,ESE,18.4,-,N/A,,Clear,110,2013-04-05 20:54:00
4:15 PM,46.4,26.6,46,29.99,10.0,East,19.6,27.6,N/A,,Clear,100,2013-04-05 21:15:00
4:34 PM,48.2,26.6,43,29.97,10.0,ESE,20.7,26.5,N/A,,Clear,110,2013-04-05 21:34:00
4:55 PM,48.2,24.8,40,29.95,10.0,ESE,23.0,28.8,N/A,,Clear,110,2013-04-05 21:55:00
5:15 PM,50.0,24.8,37,29.94,10.0,ESE,23.0,-,N/A,,Clear,110,2013-04-05 22:15:00
5:34 PM,48.2,24.8,40,29.91,10.0,ESE,25.3,33.4,N/A,,Clear,120,2013-04-05 22:34:00
5:55 PM,48.2,26.6,43,29.89,10.0,ESE,23.0,31.1,N/A,,Clear,120,2013-04-05 22:55:00
6:15 PM,48.2,26.6,43,29.89,10.0,ESE,21.9,29.9,N/A,,Clear,120,2013-04-05 23:15:00
6:34 PM,48.2,28.4,46,29.91,10.0,East,13.8,25.3,N/A,,Clear,100,2013-04-05 23:34:00
6:55 PM,48.2,28.4,46,29.91,10.0,ESE,11.5,-,N/A,,Clear,110,2013-04-05 23:55:00
7:15 PM,48.2,28.4,46,29.91,10.0,East,11.5,17.3,N/A,,Clear,90,2013-04-06 00:15:00
7:34 PM,48.2,28.4,46,29.91,10.0,East,10.4,-,N/A,,Scattered Clouds,100,2013-04-06 00:34:00
7:55 PM,48.2,28.4,46,29.90,10.0,East,10.4,-,N/A,,Clear,90,2013-04-06 00:55:00
8:14 PM,44.6,32.0,61,29.89,10.0,ENE,9.2,-,N/A,,Clear,60,2013-04-06 01:14:00
8:35 PM,42.8,32.0,66,29.89,10.0,East,13.8,-,N/A,,Clear,80,2013-04-06 01:35:00
8:55 PM,42.8,32.0,66,29.88,10.0,East,17.3,-,N/A,,Scattered Clouds,80,2013-04-06 01:55:00
9:15 PM,42.8,30.2,61,29.86,10.0,East,17.3,21.9,N/A,,Clear,90,2013-04-06 02:15:00
9:35 PM,42.8,30.2,61,29.86,10.0,East,13.8,-,N/A,,Clear,90,2013-04-06 02:35:00
9:55 PM,42.8,30.2,61,29.85,10.0,East,15.0,18.4,N/A,,Clear,90,2013-04-06 02:55:00
10:15 PM,42.8,30.2,61,29.84,10.0,East,13.8,-,N/A,,Clear,90,2013-04-06 03:15:00
10:35 PM,42.8,30.2,61,29.83,10.0,East,12.7,17.3,N/A,,Clear,100,2013-04-06 03:35:00
10:55 PM,42.8,30.2,61,29.82,10.0,East,12.7,-,N/A,,Clear,100,2013-04-06 03:55:00
11:15 PM,42.8,30.2,61,29.81,10.0,East,13.8,-,N/A,,Scattered Clouds,100,2013-04-06 04:15:00
11:35 PM,44.6,28.4,53,29.79,10.0,East,18.4,-,N/A,,Scattered Clouds,100,2013-04-06 04:35:00
11:55 PM,44.6,28.4,53,29.78,10.0,ESE,16.1,-,N/A,,Clear,110,2013-04-06 04:55:00